• In Hungary
  • List of Countries
  • For 7 days
  • Water Temperature
  • Satellite Maps
  • Weather Map
  • News
  • Weather Widgets
  • user-avatar
    Login

    Hourly Weather Qorateri

    Today, 23 October, Tuesday

    Time Temperature Precipitation Wind Pressure Humidity
    00:00 +15°C° 0 mm 2 mps 729 mmHg 30%
    01:00 +15°C° 0 mm 2 mps 729 mmHg 30%
    02:00 +14°C° 0 mm 2 mps 729 mmHg 31%
    03:00 +14°C° 0 mm 2 mps 729 mmHg 31%
    04:00 +14°C° 0 mm 2 mps 729 mmHg 31%
    05:00 +14°C° 0 mm 2 mps 729 mmHg 30%
    06:00 +14°C° 0 mm 2 mps 729 mmHg 30%
    07:00 +15°C° 0 mm 2 mps 729 mmHg 30%
    08:00 +15°C° 0 mm 2 mps 729 mmHg 30%
    09:00 +17°C° 0 mm 2 mps 729 mmHg 27%
    10:00 +19°C° 0 mm 2 mps 729 mmHg 23%
    11:00 +23°C° 0 mm 1 mps 728 mmHg 20%
    12:00 +23°C° 0 mm 1 mps 728 mmHg 19%
    13:00 +24°C° 0 mm 1 mps 728 mmHg 19%
    14:00 +24°C° 0 mm 1 mps 728 mmHg 18%
    15:00 +23°C° 0 mm 1 mps 729 mmHg 21%
    16:00 +22°C° 0 mm 1 mps 729 mmHg 23%
    17:00 +21°C° 0 mm 1 mps 729 mmHg 25%
    18:00 +20°C° 0 mm 1 mps 729 mmHg 26%
    19:00 +20°C° 0 mm 1 mps 729 mmHg 27%
    20:00 +18°C° 0 mm 2 mps 730 mmHg 28%
    21:00 +17°C° 0 mm 2 mps 730 mmHg 29%
    22:00 +17°C° 0 mm 2 mps 730 mmHg 29%
    23:00 +16°C° 0 mm 2 mps 730 mmHg 30%

    Tomorrow, 24 October, Wednesday

    Time Temperature Precipitation Wind Pressure Humidity
    00:00 +16°C° 0 mm 2 mps 729 mmHg 31%
    01:00 +15°C° 0 mm 2 mps 729 mmHg 31%
    02:00 +15°C° 0 mm 2 mps 729 mmHg 31%
    03:00 +15°C° 0 mm 2 mps 729 mmHg 31%
    04:00 +14°C° 0 mm 2 mps 729 mmHg 31%
    05:00 +14°C° 0 mm 2 mps 729 mmHg 31%
    06:00 +15°C° 0 mm 2 mps 729 mmHg 31%
    07:00 +15°C° 0 mm 2 mps 729 mmHg 30%
    08:00 +16°C° 0 mm 2 mps 729 mmHg 30%
    09:00 +18°C° 0 mm 2 mps 729 mmHg 26%
    10:00 +20°C° 0 mm 2 mps 729 mmHg 23%
    11:00 +23°C° 0 mm 2 mps 729 mmHg 20%
    12:00 +23°C° 0 mm 2 mps 728 mmHg 19%
    13:00 +24°C° 0 mm 2 mps 728 mmHg 18%
    14:00 +25°C° 0 mm 2 mps 728 mmHg 17%
    15:00 +24°C° 0 mm 1 mps 728 mmHg 19%
    16:00 +23°C° 0 mm 1 mps 728 mmHg 21%
    17:00 +22°C° 0 mm 1 mps 728 mmHg 23%
    18:00 +21°C° 0 mm 1 mps 728 mmHg 24%
    19:00 +19°C° 0 mm 2 mps 729 mmHg 25%
    20:00 +18°C° 0 mm 2 mps 729 mmHg 26%
    21:00 +17°C° 0 mm 2 mps 729 mmHg 26%
    22:00 +17°C° 0 mm 2 mps 729 mmHg 27%
    23:00 +16°C° 0 mm 3 mps 729 mmHg 27%

    Day after tomorrow, 25 October, Thursday

    Time Temperature Precipitation Wind Pressure Humidity
    00:00 +16°C° 0 mm 3 mps 729 mmHg 27%
    01:00 +15°C° 0 mm 2 mps 729 mmHg 27%
    02:00 +15°C° 0 mm 2 mps 729 mmHg 26%
    03:00 +15°C° 0 mm 2 mps 729 mmHg 26%
    04:00 +14°C° 0 mm 2 mps 729 mmHg 26%
    05:00 +14°C° 0 mm 2 mps 729 mmHg 26%
    06:00 +15°C° 0 mm 2 mps 729 mmHg 26%
    07:00 +15°C° 0 mm 2 mps 729 mmHg 26%
    08:00 +16°C° 0 mm 2 mps 729 mmHg 26%
    09:00 +18°C° 0 mm 2 mps 729 mmHg 23%
    10:00 +20°C° 0 mm 2 mps 729 mmHg 20%
    11:00 +23°C° 0 mm 2 mps 728 mmHg 16%
    12:00 +24°C° 0 mm 2 mps 728 mmHg 16%
    13:00 +25°C° 0 mm 2 mps 728 mmHg 15%
    14:00 +25°C° 0 mm 2 mps 727 mmHg 14%
    15:00 +24°C° 0 mm 1 mps 728 mmHg 16%
    16:00 +23°C° 0 mm 1 mps 728 mmHg 18%
    17:00 +22°C° 0 mm 1 mps 728 mmHg 20%
    18:00 +21°C° 0 mm 1 mps 728 mmHg 21%
    19:00 +20°C° 0 mm 1 mps 729 mmHg 21%
    20:00 +18°C° 0 mm 2 mps 729 mmHg 22%
    21:00 +18°C° 0 mm 2 mps 729 mmHg 23%
    22:00 +17°C° 0 mm 2 mps 729 mmHg 23%
    23:00 +17°C° 0 mm 3 mps 729 mmHg 24%

    26 October, Friday

    Time Temperature Precipitation Wind Pressure Humidity
    00:00 +17°C° 0 mm 3 mps 729 mmHg 25%
    01:00 +16°C° 0 mm 3 mps 729 mmHg 25%
    02:00 +16°C° 0 mm 3 mps 729 mmHg 26%
    03:00 +16°C° 0 mm 3 mps 729 mmHg 26%
    04:00 +14°C° 0 mm 3 mps 729 mmHg 26%
    05:00 +14°C° 0 mm 3 mps 729 mmHg 27%
    06:00 +16°C° 0 mm 2 mps 729 mmHg 26%
    07:00 +16°C° 0 mm 2 mps 730 mmHg 26%
    08:00 +17°C° 0 mm 2 mps 730 mmHg 26%
    09:00 +19°C° 0 mm 2 mps 730 mmHg 23%
    10:00 +21°C° 0 mm 2 mps 730 mmHg 20%
    11:00 +24°C° 0 mm 2 mps 730 mmHg 16%
    12:00 +25°C° 0 mm 2 mps 729 mmHg 16%
    13:00 +25°C° 0 mm 1 mps 729 mmHg 15%
    14:00 +26°C° 0 mm 1 mps 729 mmHg 14%
    15:00 +25°C° 0 mm 1 mps 729 mmHg 16%
    16:00 +24°C° 0 mm 1 mps 729 mmHg 18%
    17:00 +23°C° 0 mm 1 mps 729 mmHg 20%
    18:00 +22°C° 0 mm 1 mps 729 mmHg 21%
    19:00 +21°C° 0 mm 2 mps 730 mmHg 21%
    20:00 +20°C° 0 mm 2 mps 730 mmHg 22%
    21:00 +20°C° 0 mm 2 mps 730 mmHg 23%
    22:00 +19°C° 0 mm 3 mps 730 mmHg 24%
    23:00 +18°C° 0 mm 3 mps 730 mmHg 25%

    27 October, Saturday

    Time Temperature Precipitation Wind Pressure Humidity
    00:00 +18°C° 0 mm 3 mps 730 mmHg 25%
    01:00 +18°C° 0 mm 3 mps 730 mmHg 26%
    02:00 +17°C° 0 mm 3 mps 730 mmHg 26%
    03:00 +17°C° 0 mm 3 mps 730 mmHg 27%
    04:00 +17°C° 0 mm 3 mps 730 mmHg 27%
    05:00 +17°C° 0 mm 3 mps 730 mmHg 27%
    06:00 +17°C° 0 mm 2 mps 730 mmHg 27%
    07:00 +18°C° 0 mm 2 mps 730 mmHg 27%
    08:00 +18°C° 0 mm 2 mps 730 mmHg 27%
    09:00 +21°C° 0 mm 2 mps 730 mmHg 24%
    10:00 +24°C° 0 mm 2 mps 729 mmHg 21%
    11:00 +26°C° 0 mm 2 mps 729 mmHg 17%
    12:00 +27°C° 0 mm 2 mps 729 mmHg 16%
    13:00 +28°C° 0 mm 2 mps 729 mmHg 16%
    14:00 +29°C° 0 mm 2 mps 728 mmHg 15%
    15:00 +28°C° 0 mm 2 mps 728 mmHg 17%
    16:00 +27°C° 0 mm 1 mps 728 mmHg 18%
    17:00 +25°C° 0 mm 1 mps 728 mmHg 20%
    18:00 +25°C° 0 mm 1 mps 729 mmHg 21%
    19:00 +24°C° 0 mm 2 mps 729 mmHg 22%
    20:00 +24°C° 0 mm 2 mps 730 mmHg 22%
    21:00 +23°C° 0 mm 2 mps 730 mmHg 23%
    22:00 +23°C° 0 mm 2 mps 730 mmHg 24%
    23:00 +21°C° 0 mm 2 mps 730 mmHg 25%

    28 October, Sunday

    Time Temperature Precipitation Wind Pressure Humidity
    00:00 +21°C° 0 mm 2 mps 730 mmHg 26%
    01:00 +20°C° 0 mm 2 mps 730 mmHg 27%
    02:00 +21°C° 0 mm 1 mps 731 mmHg 28%
    03:00 +20°C° 0 mm 2 mps 731 mmHg 29%
    04:00 +19°C° 0 mm 2 mps 731 mmHg 31%
    05:00 +19°C° 0 mm 2 mps 732 mmHg 32%
    06:00 +19°C° 0.2 mm 2 mps 732 mmHg 38%
    07:00 +19°C° 0.2 mm 2 mps 733 mmHg 43%
    08:00 +19°C° 0.2 mm 2 mps 734 mmHg 49%
    09:00 +19°C° 0.4 mm 2 mps 734 mmHg 52%
    10:00 +19°C° 0.4 mm 3 mps 734 mmHg 56%
    11:00 +18°C° 0.4 mm 3 mps 734 mmHg 60%
    12:00 +18°C° 0.3 mm 3 mps 734 mmHg 61%
    13:00 +18°C° 0.3 mm 2 mps 734 mmHg 62%
    14:00 +18°C° 0.3 mm 2 mps 734 mmHg 63%
    15:00 +19°C° 0 mm 1 mps 735 mmHg 65%
    16:00 +19°C° 0 mm 1 mps 735 mmHg 67%
    17:00 +19°C° 0 mm 1 mps 735 mmHg 68%
    18:00 +18°C° 0 mm 1 mps 735 mmHg 70%
    19:00 +18°C° 0 mm 1 mps 735 mmHg 72%
    20:00 +18°C° 0 mm 1 mps 735 mmHg 73%
    21:00 +18°C° 0 mm 1 mps 735 mmHg 74%
    22:00 +16°C° 0 mm 1 mps 735 mmHg 74%
    23:00 +16°C° 0 mm 1 mps 734 mmHg 75%

    29 October, Monday

    Time Temperature Precipitation Wind Pressure Humidity
    00:00 +16°C° 0 mm 1 mps 734 mmHg 75%
    01:00 +16°C° 0 mm 1 mps 734 mmHg 75%
    02:00 +16°C° 0 mm 1 mps 734 mmHg 75%
    03:00 +15°C° 0 mm 1 mps 734 mmHg 75%
    04:00 +15°C° 0 mm 1 mps 734 mmHg 76%
    05:00 +15°C° 0 mm 1 mps 734 mmHg 76%
    06:00 +15°C° 0 mm 1 mps 734 mmHg 75%
    07:00 +15°C° 0 mm 0 mps 734 mmHg 73%
    08:00 +15°C° 0 mm 0 mps 734 mmHg 72%
    09:00 +18°C° 0 mm 1 mps 734 mmHg 66%
    10:00 +19°C° 0 mm 1 mps 734 mmHg 61%
    11:00 +20°C° 0 mm 1 mps 734 mmHg 55%
    12:00 +21°C° 0 mm 1 mps 734 mmHg 52%
    13:00 +22°C° 0 mm 1 mps 733 mmHg 49%
    14:00 +23°C° 0 mm 1 mps 733 mmHg 47%
    15:00 +22°C° 0 mm 1 mps 734 mmHg 50%
    16:00 +21°C° 0 mm 1 mps 734 mmHg 52%
    17:00 +21°C° 0 mm 1 mps 734 mmHg 55%
    18:00 +20°C° 0 mm 1 mps 734 mmHg 58%
    19:00 +19°C° 0 mm 1 mps 735 mmHg 61%
    20:00 +19°C° 0 mm 1 mps 735 mmHg 64%
    21:00 +18°C° 0 mm 1 mps 735 mmHg 65%
    22:00 +18°C° 0 mm 1 mps 735 mmHg 66%
    23:00 +16°C° 0 mm 1 mps 735 mmHg 67%
    Show more